Location: Carrington
(40.8686°N, 81.5060°W)
Time: 22:41:01
(UTC+00:00)

ACS3 Solar Sail - Visible Passes

Search period start: 13 October 2024 00:00
Search period end: 23 October 2024 00:00
Orbit: 960 x 1033 km, 97.5° (Epoch: 13 October)

Date Brightness Start Highest point End Pass type
(mag) Time Alt. Az. Time Alt. Az. Time Alt. Az.
13 Oct 1.8 01:31:09 77° SW 01:31:29 80° WSW 01:37:52 10° NNW visible
13 Oct 4.5 03:16:16 11° W 03:16:16 11° W 03:18:00 10° WNW visible
14 Oct 2.6 00:17:37 28° E 00:19:03 30° ENE 00:24:26 10° N visible
14 Oct 2.7 02:02:44 45° W 02:02:44 45° W 02:08:44 10° NNW visible
15 Oct 2.0 00:49:12 50° E 00:49:54 52° ENE 00:56:00 10° N visible
15 Oct 3.7 02:34:19 25° W 02:34:19 25° W 02:39:08 10° NW visible
15 Oct 3.4 23:35:39 13° E 23:37:54 15° ENE 23:41:19 10° NNE visible
16 Oct 1.7 01:20:46 87° SSE 01:20:53 89° E 01:27:15 10° NNW visible
16 Oct 4.4 03:05:53 13° W 03:05:53 13° W 03:08:26 10° WNW visible
17 Oct 2.8 00:07:13 25° E 00:08:32 26° ENE 00:13:36 10° NNE visible
17 Oct 2.5 01:52:20 52° W 01:52:20 52° W 01:58:11 10° NNW visible
18 Oct 2.1 00:38:47 44° E 00:39:19 45° ENE 00:45:15 10° N visible
18 Oct 3.5 02:23:53 29° W 02:23:53 29° W 02:28:42 10° NW visible
18 Oct 3.5 23:25:13 11° E 23:27:23 13° ENE 23:30:04 10° NNE visible
19 Oct 1.7 01:10:20 78° ENE 01:10:20 78° ENE 01:16:33 10° N visible
19 Oct 4.2 02:55:27 16° W 02:55:27 16° W 02:58:24 10° NW visible
19 Oct 2.9 23:56:45 22° E 23:57:57 23° ENE 00:02:40 10° NNE visible
20 Oct 2.3 01:41:52 58° WNW 01:41:52 58° WNW 01:47:32 10° NNW visible
21 Oct 2.2 00:28:18 39° ENE 00:28:40 39° ENE 00:34:24 10° N visible
21 Oct 3.3 02:13:25 32° WNW 02:13:25 32° WNW 02:18:09 10° NNW visible
21 Oct 3.5 23:15:14 10° ENE 23:16:49 11° ENE 23:18:23 10° NE visible
22 Oct 1.8 00:59:49 67° ENE 00:59:49 67° ENE 01:05:46 10° N visible
22 Oct 4.1 02:44:56 18° WNW 02:44:56 18° WNW 02:48:08 10° NW visible
22 Oct 3.0 23:46:14 19° ENE 23:47:19 20° ENE 23:51:36 10° NNE visible
